Weather Roundup
Issued by NWS Chicago, IL

Home | Current Version | Previous Version | Text Only | Print | Product List | Glossary On
Versions: 1 2 3 4 5 6 7 8 9 10 11 12 13 14 15 16 17 18 19 20 21 22 23 24 25 26 27 28 29 30 31 32 33 34 35 36 37 38 39 40 41 42 43 44 45 46 47 48 49 50
000
NZUS59 KLOT 271609
HRRLOT

CHICAGO AREA WEATHER ROUNDUP
NATIONAL WEATHER SERVICE CHICAGO/ROMEOVILLE IL
1100 AM CDT FRI MAY 27 2016

NOTE: "FAIR" INDICATES FEW OR NO CLOUDS BELOW 12,000 FEET WITH NO
SIGNIFICANT WEATHER AND/OR OBSTRUCTIONS TO VISIBILITY.

* THESE STATIONS ARE NOT UNDER NWS QUALITY CONTROL. THEY ALSO MAY NOT
  REPORT WEATHER SUCH AS PRECIPITATION OR FOG.

ILZ005-006-012>014-019>023-271700-
NORTHEAST ILLINOIS

CITY           SKY/WX    TMP DP  RH WIND       PRES   REMARKS
OHARE          PTSUNNY   74  66  76 S10       29.90R
MIDWAY         CLOUDY    77  64  64 S13       29.90S
AURORA         PTSUNNY   79  67  66 S14G20    29.90S HX  81
LANSING*       CLOUDY    75  65  70 S13       29.94R
JOLIET*        CLOUDY    77  68  72 S9        29.91S
WAUKEGAN       LGT RAIN  74  68  81 S14       29.89S
DUPAGE AIRPORT CLOUDY    77  66  68 S15       29.90S
WHEELING       CLOUDY    73  67  81 S9        29.91S
KANKAKEE*      MOSUNNY   79  66  64 S15G22    29.93F HX  81
MORRIS*        CLOUDY    78  64  61 S13       29.89F HX  80
LEWIS AIRPORT* CLOUDY    76  64  65 S16       29.92R
$$

WIZ051-052-058>065-066-070>072-271700-
SOUTHEAST WISCONSIN

CITY           SKY/WX    TMP DP  RH WIND       PRES   REMARKS
MILWAUKEE      CLOUDY    73  67  81 SE6       29.88S
KENOSHA*       CLOUDY    75  68  78 S10       29.89S
RACINE*        CLOUDY    73  64  73 S5        29.90S
BURLINGTON     CLOUDY    73  66  77 S8        29.89S
WAUKESHA       PTSUNNY   72  66  83 S8        29.90S HAZE
WEST BEND      CLOUDY    72  66  83 S5        29.89R
$$

INZ001>003-010>013-019-020-271700-
NORTHWEST INDIANA

CITY           SKY/WX    TMP DP  RH WIND       PRES   REMARKS
GARY*          PTSUNNY   75  72  88 S8        29.93R
MICHIGAN CITY* NOT AVBL
RENSSELAER*    NOT AVBL
VALPARAISO     PTSUNNY   77  64  64 S15G21    29.96R
$$

LMZ740>746-271700-
SOUTHERN LAKE MICHIGAN

STATION/POSITION TIME  SKY/WX   TEMP WIND        PRES    VSBY
                                AIR  DIR/SP/G
                 (UTC)          (F)  (DEG/KT/KT) (MB)    (MI)
HARRISON CRIB    1500            70  190/ 12/ 12   N/A
BURNHAM HARBOR   1600            74  180/  6/ 12   N/A
CALUMET HARBOR   1500            72  200/ 10/ 14 1012.2F
BURNS HARBOR     1500            74  190/ 12/ 17 1013.5F
MICHIGAN CITY    1500            72  140/  9/ 11   N/A
$$

ABBREVIATIONS USED IN REMARKS
   TC - TEMPERATURE IN CELSIUS
  WCI - WIND CHILL INDEX
   HX - HEAT INDEX
  VSB - VISIBILITY
$$



USA.gov is the U.S. government's official web portal to all federal, state and local government web resources and services.